Location: La Mariona
(45.4000°N, 11.1000°E)
Time: 15:24:49
(UTC+00:00)

Daily predictions for brighter satellites

Satellite Brightness Start Highest point End
(mag) Time Altitude Azimuth Time Altitude Azimuth Time Altitude Azimuth
BREEZE M DEB (TANK) 4.4 19:01:07 10° W 19:04:50 64° N 19:16:51 10° ENE
Cosmos 1515 Rocket 3.9 19:11:58 10° SSE 19:16:08 45° E 19:20:19 10° NNE
USA 306 3.7 19:13:14 10° WNW 19:17:18 44° SW 19:21:22 10° SSE
Cosmos 1633 Rocket 3.3 19:13:34 10° NNW 19:18:00 75° W 19:22:24 10° S
Cosmos 1437 2.9 19:17:06 10° SSW 19:19:54 62° WNW 19:22:43 10° N
ISS -3.8 19:17:23 10° SW 19:20:44 74° SSE 19:24:05 10° ENE
Cosmos 1328 Rocket 3.7 19:20:18 10° S 19:24:42 82° W 19:29:07 10° N
Cosmos 44 4.1 19:21:19 10° NNW 19:26:34 46° NE 19:31:36 10° ESE
ERS-2 3.4 19:23:34 10° N 19:27:03 44° WNW 19:30:31 10° SW
Cosmos 1500 3.2 19:23:40 10° N 19:27:25 87° W 19:31:08 10° S
Cosmos 1538 Rocket 4.2 19:23:27 10° NNW 19:28:50 82° WSW 19:34:05 10° SSE
Cosmos 2228 Rocket 4.2 19:25:30 10° SSE 19:29:15 27° E 19:33:03 10° NNE
Meteor 1-14 Rocket 4.4 19:23:49 10° NNW 19:29:38 86° W 19:35:17 10° S
SPOT 1/Viking Rocket 4.5 19:25:36 10° SE 19:30:14 34° ENE 19:34:51 10° N
Cosmos 2315 Rocket 4.3 19:27:28 10° SSW 19:33:51 77° W 19:40:16 10° N
Resurs 01 Rocket 1.8 19:31:19 10° SSE 19:35:41 62° ENE 19:40:05 10° N
Cosmos 2084 Rocket 4.3 19:31:49 10° NNW 19:35:51 40° NE 19:39:54 11° ESE
Cosmos 1470 Rocket 3.7 19:32:57 10° N 19:37:27 81° W 19:41:55 10° S
IGS 5A 3.6 19:35:04 10° SSE 19:39:07 58° ENE 19:43:13 10° N
Cosmos 1680 Rocket 4.0 19:36:56 10° N 19:42:05 46° ENE 19:46:39 13° SE
Cosmos 1782 4.5 19:39:32 10° SW 19:43:13 36° WNW 19:46:55 10° N
Meteor 1-5 Rocket 4.1 19:39:13 10° N 19:44:34 89° W 19:49:52 10° S
USA 307 4.4 19:43:08 10° WNW 19:46:48 28° SW 19:50:29 10° SSE
SPOT 3 Rocket 3.6 19:42:02 10° SSE 19:47:10 73° ENE 19:52:19 10° N
NOSS 3-4 (A) 4.1 19:41:49 10° NW 19:48:51 74° SW 19:56:19 11° SSE
NOSS 3-4 (C) 4.1 19:41:56 10° NW 19:48:58 75° SW 19:56:25 12° SSE
SJ 16-02 1.9 19:44:53 10° SSW 19:49:17 64° WNW 19:53:42 10° NNE
Cosmos 2297 4.1 19:44:28 10° S 19:49:47 42° ESE 19:55:05 10° NE
Cosmos 1933 Rocket 3.5 19:46:37 10° N 19:50:59 88° WSW 19:55:20 10° S
Iridium 4 Rocket 4.0 19:45:59 10° SSE 19:51:43 57° E 19:57:28 10° N
Tianhe-1 1.6 19:51:14 10° WSW 19:54:11 38° S 19:56:11 17° ESE
Ariane Rocket 3.9 19:51:53 10° S 19:56:46 49° W 20:01:42 10° NNW
Gbstr 26 Del rocket 4.4 19:51:59 10° WNW 19:59:54 78° NNE 20:05:58 13° ESE
Cosmos 1943 Rocket 2.7 19:55:20 10° S 20:00:28 38° ESE 20:05:36 10° NE
CRYOSAT 2 4.5 19:56:42 10° S 20:01:35 80° W 20:06:30 10° N
ATLAS 2AS CENTAUR R/B 2.8 19:54:47 10° NW 20:02:12 84° NE 20:07:46 16° SE
Cosmos 2082 Rocket 2.5 19:57:06 10° NNW 20:02:41 66° WSW 20:07:52 12° SSE
Terra 3.4 19:59:45 13° ESE 20:02:44 22° ENE 20:06:23 10° NNE
Cosmos 158 Rocket 4.2 19:58:24 10° NNW 20:03:16 64° WSW 20:07:54 11° S
Cosmos 990 Rocket 4.0 19:58:51 10° S 20:04:01 67° ESE 20:09:15 10° NNE
Cosmos 1544 3.9 20:04:12 10° N 20:07:34 34° ENE 20:09:21 21° SE
Meteor 1-11 Rocket 3.8 20:02:52 10° N 20:08:51 79° E 20:13:54 14° SSE
Cosmos 1340 Rocket 3.5 20:06:31 10° N 20:10:23 40° ENE 20:12:35 21° SE
Cosmos 1900 4.3 20:06:17 10° SSW 20:11:23 83° ESE 20:16:28 10° NE
Cosmos 1898 Rocket 3.5 20:08:11 10° S 20:13:25 65° ESE 20:18:44 10° NNE
CZ-2C R/B 3.7 20:12:38 10° NNE 20:17:12 85° ESE 20:21:50 10° SSW
USA 245 1.9 20:18:58 43° SSE 20:19:34 72° ENE 20:22:04 10° N
Cosmos 923 Rocket 4.3 20:15:51 10° NNW 20:21:05 66° WSW 20:25:16 16° S
ARIANE 5 R/B 2.7 20:18:52 22° SSE 20:21:31 61° ENE 20:25:49 10° N
Cosmos 1271 Rocket 3.8 20:18:42 10° SSW 20:22:34 47° WNW 20:26:27 10° N
Cosmos 2278 Rocket 4.2 20:21:57 10° WSW 20:26:55 31° NW 20:31:55 10° N
Cosmos 1461 3.1 20:22:25 10° SSW 20:27:06 71° ESE 20:31:44 10° NE
Cosmos 2369 Rocket 2.8 20:26:36 21° SSE 20:29:29 35° ESE 20:34:33 10° NE
Cosmos 1666 4.4 20:28:30 10° NNW 20:31:43 28° W 20:34:57 10° SSW
Cosmos 1818 3.6 20:27:51 10° NW 20:33:22 90° NE 20:36:36 26° SE
ATLAS CENTAUR R/B 2.8 20:36:26 18° E 20:36:26 18° E 20:38:09 10° ENE
SL-24 R/B - RUBIN 2 4.2 20:30:18 10° NW 20:35:34 58° WSW 20:38:18 24° S
Cosmos 1536 3.0 20:33:48 10° NNW 20:37:49 71° W 20:40:06 24° S
ERBS 2.2 20:36:11 10° NW 20:39:28 70° SW 20:40:21 44° SSE
OAO 3 Rocket 4.5 20:37:16 10° WSW 20:40:45 21° S 20:40:54 21° S
Cosmos 1238 Rocket 4.0 20:36:58 10° N 20:42:19 45° ENE 20:44:23 29° SE
SPOT 5 3.1 20:39:51 26° SSE 20:42:50 71° ENE 20:48:11 10° N
CZ-2C R/B 3.3 20:42:20 10° SW 20:43:05 13° SSW 20:43:05 13° SSW
Nadezhda 1 Rocket 4.1 20:39:15 10° SSW 20:45:32 75° W 20:51:45 10° N
Cosmos 2154 Rocket 4.2 20:39:41 10° NNW 20:45:59 72° W 20:50:44 18° S
Cosmos 962 Rocket 4.5 20:41:07 10° N 20:47:15 71° E 20:50:49 26° SSE
ERS-1 Rocket 2.9 20:49:06 29° SSE 20:51:44 86° ENE 20:56:48 10° NNW
Cosmos 1862 Rocket 3.8 20:54:15 37° SE 20:55:26 49° E 20:59:37 10° NNE
Cosmos 1975 3.7 20:53:23 10° N 20:57:01 33° ENE 20:57:45 30° E
ISS -1.9 20:54:40 10° W 20:57:46 32° NNW 21:00:52 10° NE
Cosmos 1607 4.1 20:54:28 17° S 20:59:14 53° ESE 21:05:32 10° NE
Spot 2 Rocket 4.1 21:00:39 22° SSW 21:03:43 50° W 21:08:37 10° NNW
Cosmos 1937 Rocket 3.9 20:59:45 10° SSW 21:04:51 64° WNW 21:10:01 10° NNE
Lacrosse 5 3.3 21:09:47 22° E 21:09:47 22° E 21:12:20 10° ENE
Cosmos 1743 3.2 21:05:57 10° NNW 21:09:45 55° W 21:11:02 36° SSW
Cosmos 2263 4.3 21:09:26 32° S 21:11:53 55° ESE 21:17:32 10° NE
Resurs 01 Rocket 4.2 21:10:11 10° WSW 21:12:35 14° W 21:14:59 10° WNW
RESURS DK-1 2.8 21:08:53 10° NNW 21:12:58 51° ENE 21:13:58 41° ESE
Cosmos 1707 Rocket 4.2 21:14:44 22° SSW 21:17:24 51° WNW 21:21:44 10° N
CZ-4B DEB 4.4 21:22:08 62° WSW 21:22:12 62° W 21:25:24 10° NNW
Cosmos 2366 rocket 4.0 21:16:37 10° N 21:22:50 75° E 21:25:29 37° SSE
Cosmos 1048 Rocket 4.2 21:22:43 10° NNW 21:27:59 61° ENE 21:29:35 41° SE
Cosmos 1867 3.5 21:23:54 16° SW 21:28:15 90° SE 21:33:45 10° NE
Cosmos 2181 Rocket 3.9 21:25:49 32° S 21:28:55 89° E 21:35:05 10° N
Meteor 2-4 Rocket 3.8 21:28:25 42° SSE 21:30:06 59° E 21:35:33 10° NNE
Tianhe-1 3.6 21:27:36 10° WSW 21:28:08 13° WSW 21:28:08 13° WSW
Meteor 1-19 Rocket 4.1 21:28:39 33° SSW 21:31:11 81° WNW 21:36:39 10° N
Cosmos 44 Rocket 4.0 21:31:17 10° NNW 21:36:24 51° NE 21:38:15 34° ESE
BREEZE-M R/B 3.2 21:34:46 10° WNW 21:36:27 40° NW 21:36:27 40° NW
SL-27 R/B 3.1 21:35:06 10° N 21:38:02 45° NE 21:38:02 45° NE
BREEZE M DEB (TANK) 4.2 21:37:03 10° W 21:37:17 11° W 21:37:17 11° W
Cosmos 1833 4.2 21:33:49 10° NNW 21:39:36 76° ENE 21:41:31 44° SE
Terra 2.5 21:38:38 34° SSW 21:40:10 47° W 21:44:47 10° NNW
Cosmos 1733 Rocket 4.0 21:39:58 10° NNW 21:44:00 39° W 21:45:11 32° SW
Cosmos 1943 Rocket 3.6 21:39:04 10° WSW 21:44:13 36° NW 21:49:23 10° NNE
Cosmos 1656 Rocket 3.5 21:46:52 36° SSW 21:49:11 88° WNW 21:54:47 10° NNE
ATLAS 2AS CENTAUR R/B 4.3 21:47:05 10° WNW 21:52:11 21° WSW 21:55:13 16° SW
ALOS 2 3.9 21:51:57 27° E 21:52:38 28° ENE 21:56:24 10° N
Cosmos 2218 Rocket 4.3 21:49:10 10° NNW 21:55:24 63° W 21:58:01 36° SSW
Cosmos 494 Rocket 3.9 21:54:38 10° NNW 21:59:51 84° ENE 22:00:49 60° SSE
Cosmos 2298 Rocket 4.1 22:02:56 41° SW 22:04:46 75° WNW 22:10:05 10° NNE
Cosmos 1908 Rocket 3.7 22:01:41 10° NNW 22:06:07 63° W 22:06:34 59° SW
Nadezhda 3 Rocket 4.0 22:06:39 48° SSE 22:08:16 67° E 22:14:25 10° NNE
Meteor 1-13 Rocket 4.2 22:10:24 55° SE 22:11:21 65° E 22:16:49 10° NNE
NOSS 2-1 (C) 4.3 22:07:42 10° NW 22:12:35 72° NE 22:14:45 42° ESE
Cosmos 2369 Rocket 3.4 22:08:17 11° SW 22:13:25 40° NW 22:18:45 10° NNE
ATLAS CENTAUR R/B 2.5 22:12:29 26° W 22:13:53 35° NW 22:17:26 10° NNE
NOSS 2-1 (D) 4.2 22:14:33 10° NW 22:19:29 80° NE 22:21:26 46° SE
Okean 1-7 3.3 22:21:21 57° W 22:21:39 58° W 22:25:55 10° N
Sich 1 Rocket 3.9 22:18:42 10° N 22:23:09 53° ENE 22:23:17 53° E
Spot 4 3.7 22:24:53 70° SSW 22:25:23 79° WSW 22:30:16 10° NNW
COSMOS 2487 3.7 22:22:30 10° N 22:24:59 37° NNE 22:24:59 37° NNE
Cosmos 2344 4.3 22:19:04 10° NW 22:28:28 89° SW 22:35:50 30° SE
Cosmos 2242 Rocket 4.3 22:27:54 42° WSW 22:28:35 46° WNW 22:32:57 10° N
Okean 2 Rocket 3.7 22:27:12 10° N 22:31:26 44° ENE 22:31:30 44° E
Cosmos 1125 Rocket 3.9 22:31:07 40° WSW 22:32:44 58° WNW 22:37:54 10° NNE
Cosmos 1400 Rocket 4.5 22:30:28 10° NNE 22:33:50 24° ENE 22:33:54 24° ENE
Cosmos 2151 Rocket 4.5 22:29:43 10° N 22:33:57 38° ENE 22:34:08 37° E
Cosmos 2239 Rocket 4.4 22:27:47 10° N 22:34:10 87° W 22:35:47 53° S
Cosmos 1703 Rocket 4.4 22:34:26 39° W 22:35:04 41° WNW 22:39:18 10° N
ISS -1.7 22:32:11 10° NW 22:35:11 29° N 22:36:28 22° NE
Cosmos 1378 3.8 22:38:54 51° NW 22:38:54 51° NW 22:42:03 10° N
Cosmos 1782 Rocket 4.0 22:34:36 10° NNW 22:38:54 51° W 22:38:55 51° W
Lacrosse 5 2.1 22:48:53 38° WSW 22:50:47 67° NW 22:55:53 10° NE
Cosmos 1934 Rocket 3.8 22:47:55 10° N 22:54:03 89° W 22:55:20 59° S
Cosmos 1805 3.7 22:52:29 10° NNW 22:55:42 57° NNW 22:55:42 57° NNW
Cosmos 1066 Rocket 4.3 22:55:52 53° SW 22:57:04 69° WNW 23:02:39 10° N
Cosmos 2227 Rocket 3.4 22:59:21 10° NNW 23:04:34 36° NE 23:07:26 22° ESE
SeaSat 1 3.9 23:02:03 10° NE 23:05:37 24° E 23:05:37 24° E
Cosmos 2297 Rocket 2.9 23:01:00 10° NNW 23:06:29 47° ENE 23:08:40 32° ESE
Cosmos 1339 Rocket 4.5 23:06:12 56° S 23:07:42 84° E 23:14:04 10° N
Meteor 2-10 4.4 23:03:41 10° N 23:08:50 52° ENE 23:09:41 47° ESE
Cosmos 1766 3.9 23:14:03 10° NNW 23:17:13 50° NW 23:17:13 50° NW
Cosmos 1674 Rocket 3.6 23:19:33 75° ENE 23:19:33 75° ENE 23:23:51 10° NNE
Okean 1 Rocket 3.5 23:15:13 10° N 23:19:30 53° ENE 23:19:30 53° ENE
Okean 2 3.9 23:23:28 52° ENE 23:23:28 52° ENE 23:27:05 10° NNE
Cosmos 2221 Rocket 4.0 23:23:40 53° W 23:23:47 54° WNW 23:28:15 10° N
EO 1 Delta rocket 4.3 23:25:57 58° SSE 23:27:11 83° ENE 23:33:58 10° N
COSMOS 2455 2.7 23:21:23 10° NNW 23:27:27 83° WSW 23:28:41 59° SSE
USA 215 4.1 23:21:51 10° E 23:28:06 50° NNE 23:34:22 10° NW
ALOS 2 3.9 23:29:20 30° W 23:29:20 30° W 23:32:47 10° NNW
Resurs 1-4 Rocket 4.2 23:27:22 10° ENE 23:30:07 14° E 23:31:39 13° ESE
USA 81 4.0 23:30:39 10° N 23:35:56 69° W 23:36:30 64° SW
Cosmos 371 Rocket 3.6 23:36:48 51° ESE 23:36:52 51° ESE 23:41:36 10° NNE
Cosmos 1470 3.1 23:33:08 10° N 23:36:35 63° NNE 23:36:35 63° NNE
Cosmos 1932 4.4 23:35:56 54° SSW 23:37:31 85° ESE 23:43:53 10° NE
Cosmos 1727 Rocket 4.0 23:36:38 53° SSE 23:38:13 76° E 23:44:34 10° N
Cosmos 1953 4.2 23:36:13 10° NNE 23:39:26 23° ENE 23:40:08 22° E
CZ-2D R/B 4.1 23:36:36 10° NE 23:40:03 17° E 23:41:40 15° ESE
Cosmos 2251 Rocket 3.5 23:36:38 10° NNW 23:41:54 74° ENE 23:42:54 57° SE
SL-24 R/B 4.5 23:43:25 53° E 23:43:47 55° ENE 23:47:56 10° N
Cosmos 1842 3.9 23:46:42 47° NW 23:46:42 47° NW 23:50:01 10° N
EO 1 Del DPAF 3.6 23:42:52 10° NNE 23:45:57 59° NNE 23:45:57 59° NNE
Meteor 1-21 4.2 23:48:27 59° S 23:49:37 84° E 23:55:25 10° NNE
Thor Agena Rocket 4.1 23:46:31 10° N 23:51:37 50° WNW 23:52:46 42° WSW
Cosmos 1455 Rocket 4.1 23:48:26 10° N 23:52:30 38° ENE 23:53:16 35° E
